Weather History for Cleveland, OH

Change the Weather History Date:

Thursday, January 2, 2014

  Actual Average Record
Temperature  
Mean Temperature 19 °F 28 °F  
Max Temperature 24 °F 35 °F 66 °F (1876)
Min Temperature 14 °F 22 °F -12 °F (1879)
Degree Days  
Heating Degree Days 46 37  
Month to date heating degree days 88 73  
Since 1 July heating degree days 2251 2180  
Cooling Degree Days 0 0  
Month to date cooling degree days 0 0  
Year to date cooling degree days 0 0  
Moisture  
Dew Point 14 °F    
Average Humidity 76    
Maximum Humidity 84    
Minimum Humidity 67    
Precipitation  
Precipitation 0.28 in 0.10 in 0.75 in (1965)
Month to date precipitation 0.43 0.20  
Year to date precipitation 0.43 0.20  
Snow  
Snow 5.20 in 0.60 in - ()
Month to date snowfall 7.7 1.2  
Since 1 July snowfall 29.5 19.8  
Snow Depth 5.00 in    
Sea Level Pressure  
Sea Level Pressure 30.04 in    
Wind  
Wind Speed 21 mph (NNE)    
Max Wind Speed 32 mph    
Max Gust Speed 40 mph    
Visibility 2 miles    
Events Snow    
T = Trace of Precipitation, MM = Missing Value Source: NWS Daily Summary

Daily Weather History Graph

Daily Weather History Graph

Search for Another Location

Airport:

Trip Planner

Search our weather history database for the weather conditions in past years. The results will help you decide how hot, cold, wet, or windy it might be!

Date:

Astronomy

Jan. 02, 2014 Rise Set
Actual Time 7:53 AM EST 5:09 PM EST
Civil Twilight 7:22 AM EST 5:40 PM EST
Nautical Twilight 6:47 AM EST 6:15 PM EST
Astronomical Twilight 6:14 AM EST 6:48 PM EST
Moon 8:32 AM EST (1/2) 7:06 PM EST (1/2)
Length of Visible Light 10h 18m
Length of Day
9h 15m
New Moon, 2% of the Moon is Illuminated
Jan 2
New Moon
Jan 7
First Quarter
Jan 15
Full
Jan 24
Last Quarter
Jan 30
New

Hourly Weather History & Observations

Time (EST) Temp. Windchill Dew Point Humidity Pressure Visibility Wind Dir Wind Speed Gust Speed Precip Events Conditions
12:28 AM 23.0 °F 13.1 °F 18.0 °F 81% 30.13 in 1.8 mi NE 9.2 mph - 0.01 in Snow Light Snow
12:51 AM 23.0 °F 13.9 °F 18.0 °F 81% 30.16 in 1.8 mi NE 8.1 mph - 0.01 in Snow Light Snow
1:19 AM 23.0 °F 11.1 °F 18.0 °F 81% 30.11 in 3.0 mi NE 12.7 mph - 0.01 in Snow Light Snow
1:37 AM 23.0 °F 11.1 °F 18.0 °F 81% 30.10 in 7.0 mi ENE 12.7 mph - 0.02 in Snow Light Snow
1:51 AM 24.1 °F 13.1 °F 18.0 °F 77% 30.14 in 9.0 mi ENE 11.5 mph - 0.02 in Snow Light Snow
2:51 AM 24.1 °F 12.5 °F 17.1 °F 75% 30.12 in 8.0 mi NE 12.7 mph - 0.00 in Snow Light Snow
3:05 AM 24.1 °F 13.1 °F 18.0 °F 77% 30.09 in 2.0 mi NE 11.5 mph - 0.00 in Snow Light Snow
3:10 AM 24.1 °F 12.5 °F 18.0 °F 77% 30.09 in 1.8 mi ENE 12.7 mph - 0.00 in Snow Light Snow
3:17 AM 24.1 °F 12.5 °F 18.0 °F 77% 30.09 in 2.0 mi NE 12.7 mph - 0.00 in Snow Light Snow
3:23 AM 24.1 °F 12.0 °F 18.0 °F 77% 30.09 in 3.0 mi ENE 13.8 mph - 0.00 in Snow Light Snow
3:39 AM 24.1 °F 12.5 °F 18.0 °F 77% 30.07 in 2.0 mi NE 12.7 mph - 0.00 in Snow Light Snow
3:46 AM 24.8 °F 13.4 °F 17.6 °F 74% 30.07 in 1.8 mi NE 12.7 mph - 0.01 in Snow Light Snow
3:51 AM 24.1 °F 12.5 °F 18.0 °F 77% 30.11 in 1.5 mi NE 12.7 mph - 0.01 in Snow Light Snow
4:39 AM 23.0 °F 10.6 °F 18.0 °F 81% 30.06 in 2.0 mi ENE 13.8 mph - 0.01 in Snow Light Snow
4:47 AM 23.0 °F 10.6 °F 17.6 °F 80% 30.05 in 1.8 mi ENE 13.8 mph - 0.02 in Snow Light Snow
4:51 AM 23.0 °F 10.1 °F 18.0 °F 81% 30.09 in 2.0 mi NE 15.0 mph - 0.02 in Snow Light Snow
5:35 AM 23.0 °F 9.6 °F 17.1 °F 78% 30.03 in 2.5 mi NE 16.1 mph 21.9 mph 0.00 in Snow Light Snow
5:51 AM 23.0 °F 8.7 °F 17.1 °F 78% 30.06 in 2.5 mi NE 18.4 mph 25.3 mph 0.00 in Snow Light Snow
6:23 AM 23.0 °F 10.6 °F 16.0 °F 74% 30.02 in 2.0 mi NE 13.8 mph - 0.01 in Snow Light Snow
6:31 AM 21.9 °F 8.2 °F 16.0 °F 78% 30.02 in 1.5 mi NE 16.1 mph - 0.01 in Snow Light Snow
6:51 AM 21.9 °F 8.2 °F 16.0 °F 78% 30.05 in 2.0 mi NE 16.1 mph - 0.01 in Snow Light Snow
7:05 AM 21.9 °F 8.7 °F 16.0 °F 78% 30.01 in 1.8 mi NE 15.0 mph - 0.00 in Snow Light Snow
7:43 AM 21.9 °F 8.2 °F 16.0 °F 78% 29.98 in 2.5 mi NE 16.1 mph - 0.01 in Snow Light Snow
7:51 AM 21.9 °F 8.2 °F 16.0 °F 78% 30.01 in 2.0 mi NE 16.1 mph - 0.01 in Snow Light Snow
7:59 AM 21.9 °F 9.2 °F 16.0 °F 78% 29.97 in 1.8 mi NE 13.8 mph - 0.00 in Snow Light Snow
8:51 AM 21.9 °F 7.8 °F 16.0 °F 78% 30.00 in 0.8 mi NE 17.3 mph - 0.02 in Snow Light Snow
9:25 AM 21.9 °F 7.8 °F 16.0 °F 78% 29.97 in 0.5 mi ENE 17.3 mph - 0.00 in Snow Light Snow
9:51 AM 21.9 °F 7.3 °F 16.0 °F 78% 30.01 in 0.8 mi NE 18.4 mph - 0.01 in Snow Light Snow
10:51 AM 21.9 °F 7.8 °F 17.1 °F 82% 29.96 in 0.8 mi NE 17.3 mph 25.3 mph 0.02 in Snow Light Snow
11:01 AM 21.9 °F 7.8 °F 17.1 °F 82% 29.92 in 0.5 mi NE 17.3 mph 25.3 mph 0.00 in Snow Snow
11:16 AM 21.9 °F 6.5 °F 17.1 °F 82% 29.93 in 1.0 mi NE 20.7 mph - 0.01 in Snow Light Snow
11:46 AM 23.0 °F 7.6 °F 17.6 °F 80% 29.93 in 0.8 mi NE 21.9 mph 29.9 mph 0.01 in Snow Light Snow
11:51 AM 23.0 °F 9.2 °F 17.1 °F 78% 29.96 in 0.5 mi NE 17.3 mph 31.1 mph 0.01 in Snow Snow
12:10 PM 21.9 °F 6.9 °F 17.1 °F 82% 29.92 in 0.5 mi NE 19.6 mph 26.5 mph 0.01 in Snow Snow
12:22 PM 23.0 °F 6.3 °F 18.0 °F 81% 29.91 in 0.2 mi NNE 26.5 mph 32.2 mph 0.02 in Snow Snow
12:34 PM 21.9 °F 5.1 °F 18.0 °F 85% 29.92 in 0.5 mi NNE 25.3 mph 36.8 mph 0.02 in Snow Snow
12:51 PM 21.9 °F 5.8 °F 18.0 °F 85% 29.93 in 0.5 mi NNE 23.0 mph 32.2 mph 0.02 in Snow Snow
1:51 PM 21.0 °F 4.6 °F 16.0 °F 81% 29.92 in 0.5 mi NNE 23.0 mph 35.7 mph 0.01 in Snow Snow
2:51 PM 19.0 °F 0.3 °F 14.0 °F 81% 29.94 in 0.5 mi NNE 28.8 mph 36.8 mph 0.00 in Snow Snow
3:51 PM 19.0 °F 0.6 °F 12.9 °F 77% 29.96 in 0.5 mi NNE 27.6 mph 33.4 mph 0.00 in Snow Snow
4:16 PM 18.0 °F -1.1 °F 12.0 °F 78% 29.93 in 0.5 mi North 28.8 mph 36.8 mph 0.00 in Snow Snow
4:40 PM 18.0 °F -1.7 °F 12.0 °F 78% 29.94 in 0.5 mi NNE 31.1 mph 40.3 mph 0.00 in Snow Snow
4:51 PM 18.0 °F -0.2 °F 12.0 °F 78% 29.99 in 0.2 mi NNE 25.3 mph 35.7 mph 0.00 in Snow Heavy Snow
5:51 PM 17.1 °F -1.4 °F 12.0 °F 81% 30.02 in 0.5 mi NNE 25.3 mph 32.2 mph 0.00 in Snow Light Snow
6:18 PM 16.0 °F -3.5 °F 10.9 °F 81% 29.99 in 0.8 mi North 27.6 mph 34.5 mph 0.00 in Snow Light Snow
6:32 PM 16.0 °F -3.2 °F 10.0 °F 77% 30.00 in 1.0 mi NNE 26.5 mph 33.4 mph 0.00 in Snow Light Snow
6:49 PM 15.8 °F -2.3 °F 10.4 °F 79% 30.01 in 0.8 mi North 23.0 mph 33.4 mph 0.00 in Snow Light Snow
6:50 PM 16.0 °F -2.1 °F 10.9 °F 81% 30.05 in 0.5 mi North 23.0 mph 33.4 mph 0.00 in Snow Light Snow
7:24 PM 16.0 °F -1.3 °F 10.0 °F 77% 30.03 in 1.0 mi North 20.7 mph 33.4 mph 0.00 in Snow Light Snow
7:43 PM 16.0 °F -2.1 °F 10.0 °F 77% 30.04 in 1.2 mi North 23.0 mph 28.8 mph 0.00 in Snow Light Snow
7:51 PM 16.0 °F -2.5 °F 10.0 °F 77% 30.09 in 1.0 mi North 24.2 mph 32.2 mph 0.00 in Snow Light Snow
8:21 PM 15.1 °F -3.7 °F 9.0 °F 77% 30.06 in 0.8 mi North 24.2 mph 31.1 mph 0.00 in Snow Light Snow
8:28 PM 15.1 °F -2.9 °F 9.0 °F 77% 30.06 in 1.0 mi North 21.9 mph 32.2 mph 0.00 in Snow Light Snow
8:44 PM 15.1 °F -2.5 °F 9.0 °F 77% 30.07 in 0.8 mi North 20.7 mph 33.4 mph 0.00 in Snow Light Snow
8:51 PM 15.1 °F -2.9 °F 9.0 °F 77% 30.12 in 0.8 mi North 21.9 mph 28.8 mph 0.00 in Snow Light Snow
9:00 PM 14.0 °F -4.3 °F 9.0 °F 80% 30.08 in 1.0 mi North 21.9 mph 31.1 mph 0.00 in Snow Light Snow
9:09 PM 14.0 °F -3.0 °F 9.0 °F 80% 30.08 in 0.8 mi North 18.4 mph 31.1 mph 0.00 in Snow Light Snow
9:34 PM 14.0 °F -4.3 °F 8.1 °F 77% 30.09 in 1.0 mi North 21.9 mph 29.9 mph 0.00 in Snow Light Snow
9:46 PM 14.0 °F -4.3 °F 8.6 °F 79% 30.09 in 1.2 mi North 21.9 mph - 0.00 in Snow Light Snow
9:51 PM 14.0 °F -3.4 °F 8.1 °F 77% 30.14 in 1.2 mi North 19.6 mph 28.8 mph 0.00 in Snow Light Snow
10:02 PM 14.0 °F -3.9 °F 8.1 °F 77% 30.09 in 1.0 mi North 20.7 mph 27.6 mph 0.00 in Snow Light Snow
10:22 PM 14.0 °F -3.4 °F 9.0 °F 80% 30.10 in 0.8 mi North 19.6 mph 28.8 mph 0.00 in Snow Light Snow
10:29 PM 14.0 °F -2.5 °F 8.1 °F 77% 30.10 in 1.0 mi North 17.3 mph 29.9 mph 0.00 in Snow Light Snow
10:51 PM 15.1 °F -2.9 °F 7.0 °F 70% 30.15 in 2.0 mi North 21.9 mph - 0.00 in Snow Light Snow
10:59 PM 14.0 °F -5.8 °F 7.0 °F 74% 30.11 in 1.2 mi North 26.5 mph 38.0 mph 0.00 in Snow Light Snow
11:20 PM 15.1 °F -1.1 °F 7.0 °F 70% 30.12 in 2.5 mi North 17.3 mph 25.3 mph 0.00 in Snow Light Snow
11:32 PM 14.0 °F -3.0 °F 6.1 °F 71% 30.12 in 3.0 mi North 18.4 mph 27.6 mph 0.00 in Snow Light Snow
11:51 PM 14.0 °F -5.5 °F 3.0 °F 62% 30.17 in 2.5 mi North 25.3 mph 34.5 mph 0.00 in Snow Light Snow